User: anonymous   Login
Location: Unspecified
(0.0000°N, 0.0000°E)
Time: 02:13:36
(UTC+00:00)
Language:

STARLINK-3202 - Orbit

View from above orbital plane
View from above orbital plane
View from above satellite
View from above satellite

Ground track
Ground track

The orbit is defined by the following mean orbital elements,

1 49742U          26145.46944801 +.00000000 +00000-0 +30357-5 0 00006
2 49742  53.2125 164.4422 0001235  74.7463 285.3665 15.08835829    05
Epoch (UTC): 25 May 2026 11:16:00
Eccentricity: 0.0001235
inclination: 53.2125°
perigee height: 539 km
apogee height: 541 km
right ascension of ascending node: 164.4422°
argument of perigee: 74.7463°
revolutions per day: 15.08835829
mean anomaly at epoch: 285.3665°

The dashed part of the orbit path shows where the satellite is in the earth's shadow,  

DLR